When you browse on this site, cookies collect data to enhance your experience and personalize the content and advertising you see.
Visit our Privacy Policy to learn more. By continuing to use the site, you agree to this use of cookies and data.
  • In Österreich
  • Länderverzeichnis
  • Für 7 Tage
  • Wassertemperatur
  • Wetterkarte
  • News
  • Widgets
  • user-avatar
    Anmelden

    Stündliche Wetter Mineral del Monte

    Heute, 8 Dezember, Sonntag

    Zeit Temperatur Niederschläge Wind Luftdruck Luftfeuchtigkeit
    00:00 +7°C° 0 mm 1 m/S 546 mmHg 87%
    01:00 +7°C° 0 mm 1 m/S 545 mmHg 88%
    02:00 +6°C° 0 mm 1 m/S 545 mmHg 90%
    03:00 +6°C° 0 mm 1 m/S 545 mmHg 90%
    04:00 +6°C° 0 mm 1 m/S 544 mmHg 90%
    05:00 +5°C° 0 mm 1 m/S 544 mmHg 90%
    06:00 +7°C° 0 mm 1 m/S 545 mmHg 82%
    07:00 +9°C° 0 mm 1 m/S 547 mmHg 74%
    08:00 +11°C° 0 mm 1 m/S 548 mmHg 66%
    09:00 +13°C° 0 mm 1 m/S 549 mmHg 55%
    10:00 +15°C° 0 mm 1 m/S 549 mmHg 44%
    11:00 +18°C° 0 mm 1 m/S 550 mmHg 34%
    12:00 +17°C° 0 mm 2 m/S 550 mmHg 32%
    13:00 +18°C° 0 mm 2 m/S 549 mmHg 30%
    14:00 +18°C° 0 mm 2 m/S 549 mmHg 29%
    15:00 +17°C° 0 mm 2 m/S 548 mmHg 37%
    16:00 +15°C° 0 mm 2 m/S 547 mmHg 45%
    17:00 +13°C° 0 mm 2 m/S 546 mmHg 53%
    18:00 +12°C° 0 mm 1 m/S 546 mmHg 58%
    19:00 +11°C° 0 mm 1 m/S 546 mmHg 63%
    20:00 +10°C° 0 mm 1 m/S 545 mmHg 69%
    21:00 +9°C° 0 mm 0 m/S 545 mmHg 67%
    22:00 +8°C° 0 mm 0 m/S 545 mmHg 65%
    23:00 +8°C° 0 mm 0 m/S 544 mmHg 63%

    Morgen, 9 Dezember, Montag

    Zeit Temperatur Niederschläge Wind Luftdruck Luftfeuchtigkeit
    00:00 +8°C° 0 mm 1 m/S 544 mmHg 62%
    01:00 +8°C° 0 mm 1 m/S 544 mmHg 61%
    02:00 +8°C° 0 mm 1 m/S 543 mmHg 60%
    03:00 +7°C° 0 mm 1 m/S 543 mmHg 61%
    04:00 +7°C° 0 mm 1 m/S 543 mmHg 62%
    05:00 +7°C° 0 mm 1 m/S 543 mmHg 63%
    06:00 +9°C° 0 mm 1 m/S 544 mmHg 56%
    07:00 +11°C° 0 mm 1 m/S 546 mmHg 50%
    08:00 +13°C° 0 mm 1 m/S 547 mmHg 43%
    09:00 +15°C° 0 mm 1 m/S 548 mmHg 35%
    10:00 +18°C° 0 mm 1 m/S 548 mmHg 27%
    11:00 +20°C° 0 mm 1 m/S 549 mmHg 20%
    12:00 +21°C° 0 mm 1 m/S 549 mmHg 19%
    13:00 +21°C° 0 mm 1 m/S 548 mmHg 18%
    14:00 +21°C° 0 mm 1 m/S 548 mmHg 17%
    15:00 +19°C° 0 mm 1 m/S 547 mmHg 25%
    16:00 +16°C° 0 mm 1 m/S 546 mmHg 32%
    17:00 +14°C° 0 mm 1 m/S 545 mmHg 39%
    18:00 +13°C° 0 mm 1 m/S 545 mmHg 43%
    19:00 +12°C° 0 mm 1 m/S 545 mmHg 46%
    20:00 +11°C° 0 mm 1 m/S 545 mmHg 50%
    21:00 +11°C° 0 mm 1 m/S 544 mmHg 53%
    22:00 +9°C° 0 mm 2 m/S 544 mmHg 56%
    23:00 +9°C° 0 mm 2 m/S 544 mmHg 59%

    übermorgen, 10 Dezember, Dienstag

    Zeit Temperatur Niederschläge Wind Luftdruck Luftfeuchtigkeit
    00:00 +9°C° 0 mm 2 m/S 544 mmHg 62%
    01:00 +8°C° 0 mm 2 m/S 543 mmHg 64%
    02:00 +8°C° 0 mm 2 m/S 543 mmHg 67%
    03:00 +8°C° 0 mm 2 m/S 543 mmHg 69%
    04:00 +7°C° 0 mm 2 m/S 543 mmHg 71%
    05:00 +8°C° 0 mm 1 m/S 543 mmHg 72%
    06:00 +10°C° 0 mm 1 m/S 544 mmHg 67%
    07:00 +11°C° 0 mm 1 m/S 545 mmHg 62%
    08:00 +13°C° 0 mm 1 m/S 547 mmHg 56%
    09:00 +14°C° 0 mm 1 m/S 547 mmHg 50%
    10:00 +16°C° 0 mm 1 m/S 548 mmHg 43%
    11:00 +19°C° 0 mm 1 m/S 548 mmHg 36%
    12:00 +19°C° 0 mm 1 m/S 548 mmHg 34%
    13:00 +20°C° 0 mm 1 m/S 548 mmHg 31%
    14:00 +20°C° 0 mm 1 m/S 548 mmHg 29%
    15:00 +17°C° 0 mm 2 m/S 548 mmHg 41%
    16:00 +15°C° 0 mm 2 m/S 547 mmHg 53%
    17:00 +12°C° 0 mm 3 m/S 546 mmHg 65%
    18:00 +11°C° 0 mm 3 m/S 546 mmHg 72%
    19:00 +10°C° 0 mm 3 m/S 547 mmHg 80%
    20:00 +9°C° 0 mm 3 m/S 547 mmHg 87%
    21:00 +8°C° 0.1 mm 3 m/S 547 mmHg 87%
    22:00 +8°C° 0.1 mm 2 m/S 547 mmHg 87%
    23:00 +8°C° 0.1 mm 2 m/S 547 mmHg 86%

    11 Dezember, Mittwoch

    Zeit Temperatur Niederschläge Wind Luftdruck Luftfeuchtigkeit
    00:00 +7°C° 0 mm 2 m/S 547 mmHg 88%
    01:00 +7°C° 0 mm 2 m/S 546 mmHg 90%
    02:00 +6°C° 0 mm 2 m/S 546 mmHg 92%
    03:00 +6°C° 0 mm 2 m/S 546 mmHg 91%
    04:00 +6°C° 0 mm 2 m/S 546 mmHg 91%
    05:00 +5°C° 0 mm 2 m/S 546 mmHg 90%
    06:00 +5°C° 0 mm 2 m/S 546 mmHg 88%
    07:00 +6°C° 0 mm 2 m/S 547 mmHg 85%
    08:00 +6°C° 0 mm 2 m/S 547 mmHg 82%
    09:00 +7°C° 0 mm 2 m/S 547 mmHg 76%
    10:00 +8°C° 0 mm 2 m/S 548 mmHg 71%
    11:00 +9°C° 0 mm 2 m/S 548 mmHg 65%
    12:00 +9°C° 0 mm 2 m/S 548 mmHg 62%
    13:00 +10°C° 0 mm 2 m/S 548 mmHg 59%
    14:00 +12°C° 0 mm 2 m/S 547 mmHg 55%
    15:00 +10°C° 0 mm 2 m/S 547 mmHg 64%
    16:00 +8°C° 0 mm 2 m/S 546 mmHg 72%
    17:00 +6°C° 0 mm 2 m/S 545 mmHg 80%
    18:00 +6°C° 0 mm 2 m/S 545 mmHg 82%
    19:00 +6°C° 0 mm 2 m/S 546 mmHg 84%
    20:00 +6°C° 0 mm 1 m/S 546 mmHg 86%
    21:00 +6°C° 0 mm 1 m/S 546 mmHg 86%
    22:00 +6°C° 0 mm 1 m/S 546 mmHg 86%
    23:00 +5°C° 0 mm 0 m/S 545 mmHg 86%

    12 Dezember, Donnerstag

    Zeit Temperatur Niederschläge Wind Luftdruck Luftfeuchtigkeit
    00:00 +5°C° 0 mm 0 m/S 545 mmHg 86%
    01:00 +5°C° 0 mm 0 m/S 545 mmHg 86%
    02:00 +6°C° 0 mm 1 m/S 544 mmHg 86%
    03:00 +6°C° 0 mm 1 m/S 544 mmHg 84%
    04:00 +6°C° 0 mm 1 m/S 544 mmHg 82%
    05:00 +6°C° 0 mm 1 m/S 544 mmHg 80%
    06:00 +8°C° 0 mm 1 m/S 546 mmHg 72%
    07:00 +10°C° 0 mm 1 m/S 547 mmHg 64%
    08:00 +12°C° 0 mm 1 m/S 548 mmHg 57%
    09:00 +14°C° 0 mm 1 m/S 549 mmHg 50%
    10:00 +15°C° 0 mm 1 m/S 550 mmHg 43%
    11:00 +17°C° 0 mm 2 m/S 550 mmHg 35%
    12:00 +17°C° 0 mm 2 m/S 550 mmHg 36%
    13:00 +18°C° 0 mm 2 m/S 549 mmHg 36%
    14:00 +18°C° 0 mm 3 m/S 549 mmHg 37%
    15:00 +16°C° 0.2 mm 2 m/S 548 mmHg 47%
    16:00 +14°C° 0.2 mm 2 m/S 547 mmHg 57%
    17:00 +12°C° 0.2 mm 2 m/S 546 mmHg 67%
    18:00 +12°C° 0.1 mm 1 m/S 546 mmHg 68%
    19:00 +12°C° 0.1 mm 1 m/S 547 mmHg 69%
    20:00 +11°C° 0.1 mm 1 m/S 547 mmHg 71%
    21:00 +11°C° 0 mm 1 m/S 547 mmHg 71%
    22:00 +11°C° 0 mm 1 m/S 546 mmHg 71%
    23:00 +9°C° 0 mm 0 m/S 546 mmHg 71%

    13 Dezember, Freitag

    Zeit Temperatur Niederschläge Wind Luftdruck Luftfeuchtigkeit
    00:00 +9°C° 0 mm 0 m/S 546 mmHg 72%
    01:00 +9°C° 0 mm 0 m/S 546 mmHg 73%
    02:00 +8°C° 0 mm 0 m/S 545 mmHg 73%
    03:00 +8°C° 0 mm 0 m/S 545 mmHg 75%
    04:00 +8°C° 0 mm 0 m/S 545 mmHg 76%
    05:00 +7°C° 0 mm 0 m/S 545 mmHg 78%
    06:00 +8°C° 0 mm 0 m/S 546 mmHg 73%
    07:00 +9°C° 0 mm 0 m/S 547 mmHg 69%
    08:00 +10°C° 0 mm 0 m/S 548 mmHg 65%
    09:00 +12°C° 0 mm 1 m/S 548 mmHg 60%
    10:00 +14°C° 0 mm 1 m/S 548 mmHg 55%
    11:00 +15°C° 0 mm 1 m/S 549 mmHg 50%
    12:00 +15°C° 0 mm 2 m/S 548 mmHg 49%
    13:00 +15°C° 0 mm 2 m/S 548 mmHg 47%
    14:00 +16°C° 0 mm 2 m/S 547 mmHg 46%
    15:00 +14°C° 0 mm 2 m/S 547 mmHg 55%
    16:00 +12°C° 0 mm 2 m/S 546 mmHg 65%
    17:00 +10°C° 0 mm 2 m/S 545 mmHg 75%
    18:00 +10°C° 0 mm 1 m/S 545 mmHg 78%
    19:00 +9°C° 0 mm 1 m/S 545 mmHg 81%
    20:00 +8°C° 0 mm 0 m/S 545 mmHg 85%
    21:00 +8°C° 0 mm 1 m/S 545 mmHg 83%
    22:00 +8°C° 0 mm 1 m/S 545 mmHg 82%
    23:00 +8°C° 0 mm 1 m/S 545 mmHg 80%
    Mehr zeigen